Location: Berduj
(43.0019°N, 22.3781°E)
Time: 14:27:20
(UTC+00:00)

USA 238 - Pass Details

Date: 19 October 2019
Orbit: 1027 x 1185 km, 63.4° (Epoch: 07 November)

Event Time Altitude Azimuth Distance (km) Brightness Sun altitude
Rises 16:47:21 0° 197° (SSW) 3,763 6.8 -12.6°
Reaches altitude 10° 16:49:59 10° 192° (SSW) 2,822 6.1 -13.1°
Maximum altitude 16:56:23 52° 118° (ESE) 1,282 3.8 -14.3°
Drops below altitude 10° 17:02:59 10° 44° (NE) 2,915 5.6 -15.5°
Enters shadow 17:03:41 - 43° (NE) 3,161 5.8 -15.6°
